User: anonymous   Login
Location: Unspecified
(0.0000°N, 0.0000°E)
Time: 20:23:49
(UTC+00:00)
Language:

LUCH 5B - Orbit

View from above orbital plane
View from above orbital plane
View from above satellite
View from above satellite

Ground track
Ground track

The orbit is defined by the following mean orbital elements,

1 38977U          26145.01016345 +.00000000 +00000-0 +00000-0 0 00005
2 38977  10.4363  50.1131 0001291 157.1399  22.6486  1.00270191    01
Epoch (UTC): 25 May 2026 00:14:38
Eccentricity: 0.0001291
inclination: 10.4363°
perigee height: 35782 km
apogee height: 35792 km
right ascension of ascending node: 50.1131°
argument of perigee: 157.1399°
revolutions per day: 1.00270191
mean anomaly at epoch: 22.6486°

The dashed part of the orbit path shows where the satellite is in the earth's shadow,  

DLR